STARLINK-33791, 63594

Orbit data source: Space-Track

STARLINK-33791, 63594 is a payload satellite owned by SpaceX/Seattle (US) in LEO that was launched on Mon, 14 Apr 2025 UTC via an FALCON 9 launch vehicle from the Air Force Eastern Test Range (AFETR). Payload-class satellites include a variety of spacecraft equipped with specific instruments for various scientific and technological missions. These include communications satellites like Starlink; space stations such as the ISS; scientific satellites like the Hubble; Earth observation satellites from companies like Planet Labs, Umbra, and HawkEye 360; GPS; miniature CubeSats for education and research; and military/defense satellites.

Loading next visibility...
Identifier
63594, 2025-076AB
Orbit
LEO
Last TLE update
11 hours ago
Origin
Manufacturer
SpaceX/Seattle
Mission
Operational Commercial Communications
Bus & Motor
STARLINK V2MO, Unknown motor
Mass
575 kg wet, ~530 kg dry
Launch date (UTC)
2025-04-14 (3 months ago)
Launch vehicle
FALCON 9
Launch site
Air Force Eastern Test Range (AFETR)
Object type
Payload
Rocket body
Debris
Shape & HBR
Box + 1 Pan, 29 m
Radar Cross Section
41.120 m², Large (>1 m²)

Expand to show TLE details & history

TLE from 11 hours ago
0 STARLINK-33791
1 63594U 25076AB  25186.30366596  .00021035  00000-0  77144-3 0  9994
2 63594  42.9952 278.9863 0001192 164.8082 195.2805 15.27592632 13999
Epoch: 2025-07-05T07:17Z
TLE epoch observation values (Epoch: 2025-07-05T07:17:16.738Z)
Latitude
-0.00008°
Longitude
-113.87716°
Altitude
483.575 km
Speed
7.625 km/s
True Right ascension
18h 35m 56s
True Declination
0° 00' 00"
Sunlit
Object was in full shadow at epoch
Visualization orbit readout
Latitude
37.60536°
Longitude
-61.28585°
Altitude
485.131 km
Speed
7.628 km/s
Apparent Right ascension
20h 23m 34s
Apparent Declination
0° 35' 53"
Sunlit
Object is in daylight
Visualization observer readout
Local Sidereal Time
06:28:24
Azimuth
319.82° NNW
Elevation
-41.715°
Doppler factor
1
Orbital elements
Apogee altitude
485.775 km
Perigee altitude
484.139 km
Semi-major axis
6,863.094 km
Eccentricity
0.00012
Inclination
42.9952°
RAAN
278.9863°
Arg. of periapsis
164.8082°
True anomaly
Unknown
Mean anomaly
195.2805°
Eccentric anomaly
Unknown
Mean motion
3.81736 °/min
Orbital period
94.31 mins
BSTAR
0.00077144
Loading maneuver chart data...
Loading SW <> Apogee altitude chart data...
Loading historical data...
Loading historical data...
Loading historical data...
Loading historical data...
Loading historical data...
Loading historical data...
Loading historical data...

STARLINK-33791 Visibility forecast

Observer location: undefined°, undefined°

Span
Click to sort rows by Start time (UTC) header in descending order
Start Az.
Max El. time (UTC)
Max El. Az.
Max El.
End time (UTC)
End Az.
4 mins2025-07-06 08:34:51.016Z185.417° SSW2025-07-06 08:36:51.016Z149.619° SSE18.108°2025-07-06 08:38:51.016Z109.735° ESE
5 mins2025-07-06 10:13:51.016Z243.599° WSW2025-07-06 10:15:51.016Z115.101° SE44.254°2025-07-06 10:18:51.016Z73.32° E
5 mins2025-07-06 11:52:51.016Z290.508° WNW2025-07-06 11:54:51.016Z2.621° NNE38.197°2025-07-06 11:57:51.016Z72.528° E
5 mins2025-07-06 13:31:51.016Z292.853° NW2025-07-06 13:33:51.016Z356.357° N43.851°2025-07-06 13:36:51.016Z99.711° ESE
5 mins2025-07-06 15:10:51.016Z259.045° W2025-07-06 15:12:51.016Z206.856° SW27.021°2025-07-06 15:15:51.016Z149.789° SSE
|